Skip Page Navigation
NASA JPL Caltech
NASA Logo - Jet Propulsion Laboratory + View the NASA Portal
+ Center for Near-Earth Object Studies
JPL Home Earth Solar System Stars & Galaxies Technology
JPL Solar System Dynamics
BODIES ORBITS EPHEMERIDES TOOLS PHYSICAL DATA DISCOVERY FAQ SITE MAP
IMPORTANT: The SSD Announcement email list is now available. Major changes are coming in the near future, including possible hostname and/or URL changes. To be notified of such changes, subscribe to this email list.

Please visit this page for more details.


JPL Small-Body Database Browser
Search: [ help ]  
74882 (1999 TV105)
Classification: Main-belt Asteroid          SPK-ID: 2074882
Ephemeris | Orbit Diagram | Orbital Elements | Mission Design | Physical Parameters | Discovery Circumstances ]

[ show orbit diagram ]
Orbital Elements at Epoch 2458600.5 (2019-Apr-27.0) TDB
Reference: JPL 21 (heliocentric ecliptic J2000)
 Element Value Uncertainty (1-sigma)   Units 
e .06883797730854031 3.086e-08  
a 2.359192651031301 1.0174e-08 au
q 2.196790600853133 7.352e-08 au
i 7.059327036710097 4.3718e-06 deg
node 197.1781703218645 2.9103e-05 deg
peri 255.2170442152934 4.4808e-05 deg
M 87.58576330332286 3.3172e-05 deg
tp 2458278.486147054405
(2018-Jun-08.98614705)
0.00012207 TDB
period 1323.559705233693
3.62
8.5617e-06
2.344e-08
d
yr
n .2719937744980208 1.7595e-09 deg/d
Q 2.521594701209469 1.0874e-08 au
  Orbit Determination Parameters
   # obs. used (total)      1159  
   data-arc span      7152 days (19.58 yr)  
   first obs. used      1999-10-01  
   last obs. used      2019-05-01  
   planetary ephem.      DE431  
   SB-pert. ephem.      SB431-N16  
   condition code      0  
   norm. resid. RMS      .55382  
   source      ORB  
   producer      Otto Matic  
   solution date      2019-Jul-13 07:23:33  

Additional Information
 Earth MOID = 1.22558 au 
 Jupiter MOID = 2.60053 au 
 T_jup = 3.539 
[ show covariance matrix ]

Ephemeris | Orbit Diagram | Orbital Elements | Mission Design | Physical Parameters | Discovery Circumstances ]

Physical Parameter Table
Parameter Symbol Value Units Sigma Reference Notes
absolute magnitude H 15.3   n/a MPO267935  

74882 (1999 TV105)          Discovered 1999-Oct-03 by LINEAR at Socorro
Reference: 20040415/Numbers.arcLast Updated: 2004-04-19

Alternate Designations
 1999 TV105 = 2000 AH140 = 2001 FD25 
Ephemeris | Orbit Diagram | Orbital Elements | Mission Design | Physical Parameters | Discovery Circumstances ]
ABOUT SSD CREDITS/AWARDS PRIVACY/COPYRIGHT GLOSSARY LINKS
FirstGov 2019-Dec-06 21:12 UT
(server date/time)  
NASA Home Page
Site Manager:   Ryan S. Park
Webmaster  Alan B. Chamberlin